| time (UTC) | temp F | wind direction | speed MPH | gust MPH | rain 1hr in | rain 24hr in | rain mn in | humidity % | barometer mb |
| 20260906143019 | 71 | 96 | 4.0 | 8.0 | 0.00 | 0.00 | 0.00 | 86 | 1018.9 |
| 20260906141550 | 70 | 96 | 4.0 | 8.0 | 0.00 | 0.00 | 0.00 | 85 | 1019.0 |
| 20260906140002 | 69 | 98 | 4.0 | 7.0 | 0.00 | 0.00 | 0.00 | 89 | 1019.0 |
| 20260906134536 | 69 | 91 | 3.0 | 6.0 | 0.00 | 0.00 | 0.00 | 91 | 1019.0 |
| 20260906133004 | 66 | 95 | 2.0 | 4.0 | 0.00 | 0.00 | 0.00 | 94 | 1018.9 |
| 20260906131531 | 65 | 93 | 1.0 | 3.0 | 0.00 | 0.00 | 0.00 | 95 | 1018.8 |
| 20260906130106 | 65 | 179 | 0.0 | 2.0 | 0.00 | 0.00 | 0.00 | 95 | 1018.8 |
| 20260906124514 | 65 | 91 | 0.0 | 2.0 | 0.00 | 0.00 | 0.00 | 97 | 1018.7 |
| 20260906123046 | 63 | 95 | 0.0 | 1.0 | 0.00 | 0.00 | 0.00 | 97 | 1018.5 |
| 20260906121517 | 62 | 95 | 0.0 | 1.0 | 0.00 | 0.00 | 0.00 | 97 | 1018.4 |
| 20260906120048 | 62 | 95 | 0.0 | 1.0 | 0.00 | 0.00 | 0.00 | 97 | 1018.1 |
| 20260906114603 | 61 | 96 | 0.0 | 2.0 | 0.00 | 0.00 | 0.00 | 97 | 1017.7 |
| 20260906113031 | 60 | 168 | 0.0 | 0.0 | 0.00 | 0.00 | 0.00 | 97 | 1017.7 |
| 20260906111603 | 60 | 158 | 0.0 | 0.0 | 0.00 | 0.00 | 0.00 | 97 | 1017.5 |
| 20260906110012 | 59 | 158 | 0.0 | 0.0 | 0.00 | 0.00 | 0.00 | 96 | 1017.3 |
| 20260906104547 | 60 | 158 | 0.0 | 0.0 | 0.00 | 0.00 | 0.00 | 96 | 1017.4 |
| 20260906103011 | 60 | 158 | 0.0 | 0.0 | 0.00 | 0.00 | 0.00 | 96 | 1017.3 |
| 20260906101543 | 60 | 158 | 0.0 | 0.0 | 0.00 | 0.00 | 0.00 | 96 | 1017.3 |
| 20260906100114 | 61 | 158 | 0.0 | 0.0 | 0.00 | 0.00 | 0.00 | 96 | 1017.3 |
| 20260906094553 | 61 | 158 | 0.0 | 0.0 | 0.00 | 0.00 | 0.00 | 96 | 1017.2 |
| 20260906093132 | 61 | 158 | 0.0 | 0.0 | 0.00 | 0.00 | 0.00 | 96 | 1017.2 |
| 20260906091531 | 61 | 158 | 0.0 | 0.0 | 0.00 | 0.00 | 0.00 | 96 | 1017.2 |
| 20260906090103 | 61 | 160 | 0.0 | 0.0 | 0.00 | 0.00 | 0.00 | 96 | 1017.2 |
| 20260906084521 | 61 | 160 | 0.0 | 0.0 | 0.00 | 0.00 | 0.00 | 96 | 1017.1 |
| 20260906083051 | 60 | 160 | 0.0 | 0.0 | 0.00 | 0.00 | 0.00 | 96 | 1017.1 |
| 20260906081520 | 60 | 161 | 0.0 | 0.0 | 0.00 | 0.00 | 0.00 | 96 | 1017.1 |
| 20260906080053 | 59 | 173 | 0.0 | 0.0 | 0.00 | 0.00 | 0.00 | 96 | 1017.1 |
| 20260906074501 | 59 | 173 | 0.0 | 0.0 | 0.00 | 0.00 | 0.00 | 95 | 1016.8 |
| 20260906073032 | 59 | 173 | 0.0 | 0.0 | 0.00 | 0.00 | 0.00 | 95 | 1016.9 |
| 20260906071502 | 59 | 173 | 0.0 | 0.0 | 0.00 | 0.00 | 0.00 | 95 | 1016.8 |
| 20260906070034 | 59 | 173 | 0.0 | 0.0 | 0.00 | 0.00 | 0.00 | 94 | 1016.7 |
| 20260906064551 | 59 | 173 | 0.0 | 0.0 | 0.00 | 0.00 | 0.00 | 94 | 1016.7 |
| 20260906063022 | 60 | 173 | 0.0 | 0.0 | 0.00 | 0.00 | 0.00 | 94 | 1016.8 |
| 20260906061554 | 60 | 173 | 0.0 | 0.0 | 0.00 | 0.00 | 0.00 | 94 | 1016.8 |
| 20260906060010 | 60 | 173 | 0.0 | 0.0 | 0.00 | 0.00 | 0.00 | 94 | 1016.9 |
| 20260906054543 | 61 | 173 | 0.0 | 0.0 | 0.00 | 0.00 | 0.00 | 93 | 1016.7 |
| 20260906053011 | 61 | 173 | 0.0 | 0.0 | 0.00 | 0.00 | 0.00 | 92 | 1016.6 |
| 20260906051555 | 62 | 173 | 0.0 | 0.0 | 0.00 | 0.00 | 0.00 | 91 | 1016.3 |
| 20260906050115 | 62 | 173 | 0.0 | 0.0 | 0.00 | 0.00 | 0.00 | 91 | 1016.3 |
| 20260906044532 | 63 | 173 | 0.0 | 2.0 | 0.00 | 0.00 | 0.00 | 91 | 1016.3 |
| 20260906043105 | 63 | 176 | 0.0 | 1.0 | 0.00 | 0.00 | 0.00 | 91 | 1016.3 |
| 20260906041532 | 63 | 169 | 0.0 | 0.0 | 0.00 | 0.00 | 0.00 | 90 | 1016.3 |
| 20260906040059 | 64 | 169 | 0.0 | 2.0 | 0.00 | 0.00 | 0.00 | 89 | 1016.1 |
| 20260906034502 | 64 | 175 | 0.0 | 2.0 | 0.00 | 0.00 | 0.00 | 89 | 1016.1 |
| 20260906033044 | 65 | 178 | 0.0 | 3.0 | 0.00 | 0.00 | 0.00 | 89 | 1015.7 |
| 20260906031506 | 65 | 92 | 1.0 | 3.0 | 0.00 | 0.00 | 0.00 | 90 | 1015.7 |
| 20260906030012 | 66 | 91 | 0.0 | 3.0 | 0.00 | 0.00 | 0.00 | 90 | 1015.8 |
| 20260906024546 | 66 | 176 | 0.0 | 3.0 | 0.00 | 0.00 | 0.00 | 89 | 1016.0 |
| 20260906023005 | 66 | 171 | 1.0 | 3.0 | 0.00 | 0.00 | 0.00 | 88 | 1015.8 |
| 20260906021537 | 67 | 172 | 0.0 | 4.0 | 0.00 | 0.00 | 0.00 | 89 | 1015.7 |
| 20260906020109 | 67 | 174 | 1.0 | 2.0 | 0.00 | 0.00 | 0.00 | 91 | 1015.5 |
| 20260906014537 | 67 | 90 | 0.0 | 1.0 | 0.00 | 0.00 | 0.00 | 92 | 1015.4 |
| 20260906013100 | 68 | 92 | 0.0 | 1.0 | 0.00 | 0.00 | 0.00 | 93 | 1015.3 |
| 20260906011525 | 68 | 96 | 0.0 | 1.0 | 0.00 | 0.00 | 0.00 | 92 | 1015.1 |
| 20260906010057 | 69 | 92 | 0.0 | 2.0 | 0.00 | 0.00 | 0.00 | 92 | 1015.1 |
| 20260906004511 | 69 | 92 | 0.0 | 2.0 | 0.00 | 0.00 | 0.00 | 92 | 1015.1 |
| 20260906003044 | 69 | 177 | 0.0 | 2.0 | 0.00 | 0.00 | 0.00 | 92 | 1015.2 |
| 20260906001514 | 69 | 91 | 0.0 | 1.0 | 0.00 | 0.00 | 0.00 | 91 | 1015.3 |
| 20260906000046 | 70 | 96 | 0.0 | 1.0 | 0.00 | 0.00 | 0.00 | 91 | 1015.2 |
| 20260905234610 | 71 | 94 | 0.0 | 2.0 | 0.00 | 0.00 | 0.00 | 90 | 1015.2 |
| 20260905233030 | 71 | 179 | 0.0 | 1.0 | 0.00 | 0.00 | 0.00 | 90 | 1015.4 |
| 20260905231601 | 72 | 177 | 1.0 | 5.0 | 0.00 | 0.00 | 0.00 | 89 | 1015.3 |
| 20260905230013 | 72 | 179 | 0.0 | 4.0 | 0.00 | 0.00 | 0.00 | 89 | 1015.1 |
| 20260905224545 | 72 | 172 | 2.0 | 4.0 | 0.00 | 0.00 | 0.00 | 87 | 1015.0 |
| 20260905223014 | 73 | 96 | 1.0 | 5.0 | 0.00 | 0.00 | 0.00 | 87 | 1014.8 |
| 20260905221606 | 73 | 178 | 2.0 | 6.0 | 0.00 | 0.00 | 0.00 | 86 | 1014.6 |
| 20260905220111 | 73 | 176 | 4.0 | 10.0 | 0.00 | 0.00 | 0.00 | 85 | 1014.5 |
| 20260905214524 | 73 | 172 | 2.0 | 8.0 | 0.00 | 0.00 | 0.00 | 87 | 1014.4 |
| 20260905213101 | 73 | 176 | 1.0 | 6.0 | 0.00 | 0.00 | 0.00 | 86 | 1014.6 |
| 20260905211533 | 74 | 168 | 2.0 | 5.0 | 0.00 | 0.00 | 0.00 | 86 | 1014.7 |
| 20260905210057 | 74 | 173 | 3.0 | 8.0 | 0.00 | 0.00 | 0.00 | 85 | 1014.6 |
| 20260905204507 | 74 | 173 | 2.0 | 4.0 | 0.00 | 0.00 | 0.00 | 88 | 1014.8 |
| 20260905203042 | 74 | 171 | 3.0 | 5.0 | 0.00 | 0.00 | 0.00 | 87 | 1014.8 |
| 20260905201509 | 74 | 174 | 2.0 | 5.0 | 0.00 | 0.00 | 0.00 | 87 | 1014.5 |
| 20260905200045 | 74 | 95 | 3.0 | 7.0 | 0.00 | 0.00 | 0.00 | 87 | 1014.6 |
| 20260905194559 | 74 | 95 | 3.0 | 8.0 | 0.00 | 0.00 | 0.00 | 86 | 1014.6 |
| 20260905193029 | 74 | 173 | 2.0 | 5.0 | 0.00 | 0.00 | 0.00 | 89 | 1014.8 |
| 20260905191601 | 73 | 179 | 3.0 | 6.0 | 0.00 | 0.00 | 0.00 | 89 | 1014.8 |
| 20260905190017 | 73 | 176 | 0.0 | 3.0 | 0.00 | 0.00 | 0.00 | 89 | 1014.9 |
| 20260905184550 | 72 | 168 | 3.0 | 5.0 | 0.00 | 0.00 | 0.00 | 89 | 1014.9 |
| 20260905183015 | 73 | 175 | 2.0 | 5.0 | 0.00 | 0.00 | 0.00 | 89 | 1014.9 |
| 20260905181604 | 73 | 176 | 1.0 | 5.0 | 0.00 | 0.00 | 0.00 | 89 | 1015.0 |
| 20260905180001 | 73 | 173 | 3.0 | 7.0 | 0.00 | 0.00 | 0.00 | 89 | 1015.1 |
| 20260905174533 | 73 | 172 | 3.0 | 7.0 | 0.00 | 0.00 | 0.00 | 89 | 1014.9 |
| 20260905173003 | 73 | 169 | 4.0 | 9.0 | 0.00 | 0.00 | 0.00 | 89 | 1014.9 |
| 20260905171542 | 74 | 96 | 3.0 | 8.0 | 0.00 | 0.00 | 0.00 | 88 | 1014.8 |
| 20260905170113 | 73 | 174 | 2.0 | 7.0 | 0.00 | 0.00 | 0.00 | 89 | 1014.9 |
| 20260905164527 | 73 | 171 | 2.0 | 8.0 | 0.00 | 0.00 | 0.00 | 90 | 1014.9 |
| 20260905163059 | 73 | 90 | 3.0 | 8.0 | 0.00 | 0.00 | 0.00 | 91 | 1014.8 |
| 20260905161529 | 72 | 167 | 1.0 | 5.0 | 0.00 | 0.00 | 0.00 | 92 | 1014.9 |
| 20260905160101 | 72 | 172 | 1.0 | 3.0 | 0.00 | 0.00 | 0.00 | 92 | 1014.9 |
| 20260905154515 | 71 | 170 | 2.0 | 6.0 | 0.00 | 0.00 | 0.00 | 93 | 1014.9 |
| 20260905153050 | 71 | 170 | 2.0 | 7.0 | 0.00 | 0.00 | 0.00 | 93 | 1014.6 |
| 20260905151514 | 71 | 168 | 2.0 | 6.0 | 0.00 | 0.00 | 0.00 | 92 | 1014.6 |
| 20260905150045 | 71 | 172 | 2.0 | 6.0 | 0.00 | 0.00 | 0.00 | 93 | 1014.5 |
| 20260905144602 | 71 | 170 | 3.0 | 6.0 | 0.00 | 0.02 | 0.00 | 93 | 1014.4 |